FW8369 Weather Reports


Display with metric or nautical units.
time (UTC)temp
F
wind
direction
speed
MPH
gust
MPH
rain 1hr
in
rain 24hr
in
rain mn
in
humidity
%
barometer
mb
20260507003904 77 59 3.0 8.0 0.00 0.00 0.00 90 1012.5
20260507003404 77 4 3.0 7.0 0.00 0.00 0.00 90 1012.5
20260507002904 77 50 4.0 6.0 0.00 0.00 0.00 90 1012.5
20260507001404 77 18 2.0 5.0 0.00 0.00 0.00 90 1012.6
20260507000904 77 55 1.0 5.0 0.00 0.00 0.00 90 1012.6
20260507000405 77 45 2.0 3.0 0.00 0.00 0.00 90 1012.5
20260506235404 77 6 1.0 5.0 0.00 0.00 0.00 90 1012.3
20260506234904 77 63 1.0 3.0 0.00 0.00 0.00 90 1012.3
20260506234404 77 258 0.0 2.0 0.00 0.00 0.00 90 1012.5
20260506233904 77 307 0.0 1.0 0.00 0.00 0.00 90 1012.4
20260506233404 77 341 0.0 0.0 0.00 0.00 0.00 91 1012.4
20260506232903 77 343 0.0 1.0 0.00 0.00 0.00 91 1012.4
20260506232404 77 344 0.0 1.0 0.00 0.00 0.00 91 1012.3
20260506231904 77 0 1.0 2.0 0.00 0.00 0.00 91 1012.3
20260506231404 76 332 0.0 2.0 0.00 0.00 0.00 91 1012.2
20260506230904 76 21 1.0 3.0 0.00 0.00 0.00 91 1012.2
20260506225904 76 340 1.0 3.0 0.00 0.00 0.00 91 1012.2
20260506224904 76 336 2.0 3.0 0.00 0.00 0.00 91 1012.0
20260506224404 76 18 3.0 5.0 0.00 0.00 0.00 91 1011.9
20260506223904 76 18 1.0 6.0 0.00 0.00 0.00 91 1011.9
20260506222904 76 339 0.0 0.0 0.00 0.00 0.00 91 1011.9
20260506221904 76 56 2.0 3.0 0.00 0.00 0.00 91 1011.8
20260506221404 76 16 0.0 3.0 0.00 0.00 0.00 91 1011.7
20260506220904 76 56 1.0 3.0 0.00 0.00 0.00 91 1011.7
20260506220404 76 0 1.0 1.0 0.00 0.00 0.00 91 1011.8
20260506215904 76 338 0.0 1.0 0.00 0.00 0.00 91 1011.7
20260506215404 76 320 0.0 0.0 0.00 0.00 0.00 91 1011.7
20260506214904 76 321 0.0 0.0 0.00 0.00 0.00 91 1011.6
20260506214404 76 333 0.0 0.0 0.00 0.00 0.00 91 1011.6
20260506213905 76 342 0.0 0.0 0.00 0.00 0.00 91 1011.5
20260506213403 76 58 0.0 2.0 0.00 0.00 0.00 91 1011.4
20260506212904 76 274 0.0 0.0 0.00 0.00 0.00 91 1011.4
20260506212404 76 261 0.0 1.0 0.00 0.00 0.00 91 1011.3
20260506211904 76 25 0.0 1.0 0.00 0.00 0.00 91 1011.2
20260506210904 76 54 1.0 3.0 0.00 0.00 0.00 91 1011.2
20260506210404 76 14 0.0 0.0 0.00 0.00 0.00 91 1011.1
20260506205904 76 14 0.0 1.0 0.00 0.00 0.00 91 1011.1
20260506205404 76 21 0.0 0.0 0.00 0.00 0.00 91 1011.0
20260506204404 76 61 2.0 3.0 0.00 0.00 0.00 91 1010.9
20260506203904 76 64 1.0 6.0 0.00 0.00 0.00 91 1011.0
20260506203404 76 350 1.0 3.0 0.00 0.00 0.00 91 1011.0
20260506202904 76 57 2.0 3.0 0.00 0.00 0.00 91 1010.9
20260506200904 76 37 0.0 0.0 0.00 0.00 0.00 91 1010.8
20260506195904 76 54 1.0 3.0 0.00 0.00 0.00 91 1010.8
20260506195403 76 63 3.0 5.0 0.00 0.00 0.00 91 1010.8
20260506194904 76 49 2.0 3.0 0.00 0.00 0.00 91 1010.8
20260506194404 76 23 2.0 3.0 0.00 0.00 0.00 91 1010.8
20260506193904 76 10 0.0 1.0 0.00 0.00 0.00 91 1010.7
20260506192904 76 63 1.0 3.0 0.00 0.00 0.00 91 1010.8
20260506192404 76 55 2.0 3.0 0.00 0.00 0.00 90 1011.0
20260506191904 76 32 1.0 3.0 0.00 0.00 0.00 90 1011.1
20260506191404 76 343 1.0 2.0 0.00 0.00 0.00 90 1011.2
20260506190904 76 340 0.0 1.0 0.00 0.00 0.00 90 1011.2
20260506190404 76 341 0.0 1.0 0.00 0.00 0.00 90 1011.3
20260506185904 76 30 0.0 2.0 0.00 0.00 0.00 90 1011.3
20260506185405 76 0 0.0 3.0 0.00 0.00 0.00 90 1011.3
20260506184404 76 342 0.0 1.0 0.00 0.00 0.00 90 1011.3
20260506183904 76 341 0.0 1.0 0.00 0.00 0.00 90 1011.3
20260506183404 76 342 1.0 3.0 0.00 0.00 0.00 90 1011.4
20260506182904 76 7 1.0 2.0 0.00 0.00 0.00 90 1011.4
20260506182404 76 9 1.0 3.0 0.00 0.00 0.00 90 1011.5
20260506181904 76 60 1.0 3.0 0.00 0.00 0.00 90 1011.5
20260506181404 76 20 1.0 3.0 0.00 0.00 0.00 90 1011.4
20260506180905 76 49 3.0 5.0 0.00 0.00 0.00 90 1011.4
20260506180404 76 325 1.0 2.0 0.00 0.00 0.00 90 1011.5
20260506175904 76 61 2.0 5.0 0.00 0.00 0.00 90 1011.4
20260506175404 76 11 1.0 2.0 0.00 0.00 0.00 90 1011.5
20260506174904 76 24 3.0 5.0 0.00 0.00 0.00 90 1011.5
20260506174404 76 51 2.0 3.0 0.00 0.00 0.00 90 1011.5
20260506173404 76 53 1.0 3.0 0.00 0.00 0.00 90 1011.5
20260506172904 76 38 2.0 5.0 0.00 0.00 0.00 90 1011.5
20260506172404 76 46 2.0 6.0 0.00 0.00 0.00 90 1011.5
20260506170904 76 65 1.0 3.0 0.00 0.00 0.00 90 1011.5
20260506170404 76 0 0.0 3.0 0.00 0.00 0.00 90 1011.5
20260506165904 76 56 1.0 3.0 0.00 0.00 0.00 90 1011.6
20260506165404 76 57 1.0 3.0 0.00 0.00 0.00 89 1011.4
20260506164904 76 344 0.0 1.0 0.00 0.00 0.00 89 1011.4
20260506164404 76 355 0.0 1.0 0.00 0.00 0.00 89 1011.5
20260506163904 76 27 0.0 2.0 0.00 0.00 0.00 89 1011.5
20260506163404 77 21 1.0 2.0 0.00 0.00 0.00 89 1011.5
20260506162904 77 327 0.0 1.0 0.00 0.00 0.00 89 1011.6
20260506161904 76 328 0.0 1.0 0.00 0.00 0.00 88 1011.7
20260506161404 76 329 0.0 1.0 0.00 0.00 0.00 89 1011.8
20260506160904 76 330 0.0 0.0 0.00 0.00 0.00 89 1011.8
20260506160405 76 331 0.0 1.0 0.00 0.00 0.00 89 1011.8
20260506155904 76 331 0.0 0.0 0.00 0.00 0.00 89 1011.9
20260506153904 76 340 0.0 0.0 0.00 0.00 0.00 89 1012.0
20260506153404 76 52 0.0 3.0 0.00 0.00 0.00 89 1012.0
20260506152904 76 29 1.0 2.0 0.00 0.00 0.00 89 1012.1
20260506152405 76 323 0.0 2.0 0.00 0.00 0.00 89 1012.2
20260506151904 76 53 0.0 3.0 0.00 0.00 0.00 88 1012.3
20260506151404 76 21 2.0 2.0 0.00 0.00 0.00 88 1012.3
20260506150904 76 346 0.0 1.0 0.00 0.00 0.00 89 1012.4
20260506150404 76 347 0.0 1.0 0.00 0.00 0.00 89 1012.4
20260506145904 76 352 0.0 2.0 0.00 0.00 0.00 88 1012.3
20260506145404 76 338 2.0 3.0 0.00 0.00 0.00 89 1012.3
20260506144904 76 36 2.0 3.0 0.00 0.00 0.00 89 1012.3
20260506144404 76 56 3.0 5.0 0.00 0.00 0.00 89 1012.3
20260506143904 76 331 0.0 1.0 0.00 0.00 0.00 89 1012.2
20260506143404 76 277 0.0 1.0 0.00 0.00 0.00 89 1012.2
20260506142904 76 213 1.0 3.0 0.00 0.00 0.00 89 1012.1
20260506142404 76 345 0.0 1.0 0.00 0.00 0.00 89 1012.1
20260506141904 76 318 2.0 3.0 0.00 0.00 0.00 89 1012.1
20260506141404 76 46 1.0 3.0 0.00 0.00 0.00 89 1012.2
20260506140904 76 62 1.0 3.0 0.00 0.01 0.00 89 1012.2
20260506140404 76 347 1.0 2.0 0.00 0.02 0.00 89 1012.2
20260506135904 76 308 0.0 1.0 0.00 0.02 0.00 89 1012.2
20260506135404 76 298 0.0 1.0 0.00 0.02 0.00 89 1012.1
20260506134904 76 294 0.0 1.0 0.00 0.02 0.00 90 1012.1
20260506134404 76 306 0.0 0.0 0.00 0.02 0.00 90 1012.1
20260506133904 76 0 0.0 1.0 0.00 0.02 0.00 90 1012.0
20260506133403 76 4 1.0 1.0 0.00 0.02 0.00 90 1011.7
20260506132404 76 58 3.0 6.0 0.00 0.02 0.00 90 1011.6
20260506131904 76 334 1.0 3.0 0.00 0.03 0.00 90 1011.7
20260506131404 76 4 1.0 3.0 0.00 0.03 0.00 90 1011.8
20260506130904 76 349 0.0 3.0 0.00 0.03 0.00 90 1011.7
20260506130404 76 61 2.0 3.0 0.00 0.03 0.00 90 1011.8
20260506125904 76 358 0.0 3.0 0.00 0.03 0.00 90 1011.8
20260506125404 76 56 1.0 5.0 0.00 0.03 0.00 90 1011.8
20260506124904 76 63 2.0 6.0 0.00 0.03 0.00 90 1011.8
20260506124404 76 31 1.0 3.0 0.00 0.03 0.00 90 1011.7
20260506123904 76 10 1.0 2.0 0.00 0.03 0.00 90 1011.7
20260506123404 76 5 1.0 2.0 0.00 0.03 0.00 90 1011.7
20260506121904 76 52 2.0 3.0 0.00 0.03 0.00 89 1011.6
20260506121403 76 48 2.0 3.0 0.00 0.03 0.00 89 1011.5
20260506120904 76 52 2.0 3.0 0.00 0.03 0.00 89 1011.5
20260506115904 76 13 2.0 5.0 0.00 0.03 0.00 90 1011.5
20260506114904 76 55 2.0 5.0 0.00 0.03 0.00 89 1011.4
20260506114404 76 355 1.0 3.0 0.00 0.03 0.00 90 1011.4
20260506113904 76 27 2.0 3.0 0.00 0.04 0.00 89 1011.4
20260506113404 76 41 3.0 6.0 0.00 0.06 0.00 89 1011.4
20260506112904 76 339 1.0 3.0 0.00 0.08 0.00 90 1011.3
20260506112404 76 39 2.0 3.0 0.00 0.08 0.00 89 1011.4
20260506111905 76 349 2.0 3.0 0.00 0.08 0.00 89 1011.3
20260506111404 76 56 3.0 5.0 0.00 0.09 0.00 89 1011.2
20260506110904 76 329 1.0 3.0 0.00 0.09 0.00 89 1011.2
20260506110404 76 324 1.0 5.0 0.00 0.09 0.00 89 1011.2
20260506105903 76 39 1.0 5.0 0.00 0.09 0.00 89 1011.1
20260506105404 76 61 3.0 3.0 0.00 0.09 0.00 89 1011.1
20260506104404 76 318 0.0 2.0 0.00 0.09 0.00 89 1011.0
20260506103904 76 349 0.0 1.0 0.00 0.09 0.00 89 1011.0
20260506103403 76 21 1.0 3.0 0.00 0.11 0.00 89 1011.0
20260506102904 76 55 2.0 3.0 0.00 0.11 0.00 89 1010.9
20260506102404 76 1 0.0 3.0 0.00 0.12 0.00 89 1010.8
20260506101904 76 17 1.0 5.0 0.00 0.12 0.00 89 1010.7
20260506101404 76 36 4.0 6.0 0.00 0.12 0.00 89 1010.7
20260506100904 76 56 4.0 6.0 0.00 0.12 0.00 89 1010.7
20260506100404 76 61 3.0 5.0 0.00 0.12 0.00 88 1010.7
20260506095904 77 30 1.0 3.0 0.00 0.12 0.00 88 1010.7
20260506095403 76 50 1.0 3.0 0.00 0.12 0.00 89 1010.7
20260506094904 76 1 3.0 12.0 0.00 0.12 0.00 88 1010.7
20260506094404 77 40 2.0 3.0 0.00 0.12 0.00 88 1010.7
20260506093904 77 356 0.0 3.0 0.00 0.12 0.00 88 1010.7
20260506093404 77 56 2.0 3.0 0.00 0.12 0.00 88 1010.7
20260506091904 77 38 3.0 6.0 0.00 0.12 0.00 88 1010.7
20260506091404 77 55 1.0 6.0 0.00 0.12 0.00 88 1010.6
20260506090904 77 54 1.0 8.0 0.00 0.12 0.00 88 1010.7
20260506090404 77 48 2.0 5.0 0.00 0.12 0.00 88 1010.7
20260506085904 77 329 3.0 7.0 0.00 0.12 0.00 88 1010.7
20260506085404 76 25 3.0 7.0 0.00 0.12 0.00 88 1010.6
20260506084904 76 44 3.0 8.0 0.00 0.12 0.00 88 1010.6
20260506083904 76 349 4.0 7.0 0.00 0.12 0.00 88 1010.7
20260506082904 76 48 2.0 6.0 0.00 0.12 0.00 89 1010.8
20260506082403 76 58 5.0 8.0 0.00 0.12 0.00 89 1010.8
20260506081904 76 53 2.0 6.0 0.00 0.12 0.00 89 1010.8
20260506081404 76 38 2.0 6.0 0.00 0.12 0.00 89 1010.7
20260506080903 76 60 5.0 8.0 0.00 0.12 0.00 89 1010.7
20260506080404 76 51 4.0 7.0 0.00 0.12 0.00 88 1010.7
20260506073404 76 336 0.0 3.0 0.00 0.12 0.00 89 1011.0
20260506072904 76 51 3.0 6.0 0.00 0.12 0.00 88 1011.1
20260506071903 76 53 3.0 5.0 0.00 0.12 0.00 88 1011.4
20260506071404 76 46 2.0 6.0 0.00 0.12 0.00 88 1011.4
20260506070904 76 54 3.0 8.0 0.00 0.12 0.00 87 1011.4
20260506070404 76 50 1.0 3.0 0.00 0.12 0.00 87 1011.3
20260506062404 76 56 3.0 5.0 0.00 0.12 0.00 87 1011.7
20260506061404 76 50 3.0 6.0 0.00 0.12 0.00 87 1011.8
20260506060903 76 49 3.0 6.0 0.00 0.13 0.00 87 1011.8
20260506060404 76 11 2.0 7.0 0.00 0.13 0.00 87 1011.8
20260506051405 76 10 1.0 6.0 0.00 0.25 0.00 87 1012.4
20260506050907 76 32 2.0 6.0 0.00 0.26 0.00 88 1012.5
20260506050404 76 58 3.0 7.0 0.00 0.26 0.00 88 1012.5
20260506044904 76 58 4.0 7.0 0.00 0.30 0.00 87 1012.6
20260506044404 76 57 3.0 7.0 0.00 0.30 0.00 87 1012.7
20260506043904 76 50 4.0 8.0 0.00 0.30 0.00 87 1012.7
20260506042904 76 59 2.0 6.0 0.00 0.31 0.00 87 1012.8
20260506042404 76 59 5.0 6.0 0.00 0.31 0.00 87 1012.7
20260506041904 76 55 3.0 7.0 0.00 0.32 0.00 87 1012.8
20260506041404 76 34 3.0 7.0 0.00 0.32 0.00 87 1012.8
20260506040904 76 34 3.0 8.0 0.00 0.32 0.00 87 1012.9
20260506040404 76 48 1.0 3.0 0.00 0.32 0.00 87 1013.0
20260506035404 76 63 4.0 8.0 0.00 0.32 0.00 86 1013.1
20260506034904 77 59 3.0 10.0 0.00 0.32 0.00 86 1013.0
20260506034403 77 12 1.0 2.0 0.00 0.32 0.00 86 1012.9
20260506033904 77 51 2.0 5.0 0.00 0.32 0.00 86 1012.9
20260506033404 76 262 0.0 6.0 0.00 0.32 0.00 88 1013.0
20260506032903 75 44 6.0 10.0 0.00 0.32 0.00 88 1013.0
20260506032404 75 44 3.0 7.0 0.00 0.32 0.00 88 1013.1
20260506031904 75 43 2.0 8.0 0.00 0.32 0.00 88 1013.1
20260506031404 75 54 3.0 7.0 0.00 0.32 0.00 88 1013.1
20260506030904 75 51 3.0 5.0 0.00 0.33 0.00 88 1013.0
20260506030404 75 37 3.0 9.0 0.00 0.33 0.00 88 1013.0
20260506025904 75 50 3.0 10.0 0.00 0.34 0.00 89 1013.1
20260506023904 75 58 5.0 9.0 0.00 0.48 0.00 88 1013.1
20260506023404 75 57 5.0 9.0 0.00 0.52 0.00 88 1013.1
20260506022904 75 51 4.0 7.0 0.00 0.55 0.00 88 1013.1
20260506022404 75 46 1.0 3.0 0.00 0.56 0.00 89 1013.1
20260506021904 75 55 3.0 6.0 0.00 0.56 0.00 89 1013.2
20260506021404 75 13 3.0 7.0 0.00 0.57 0.00 88 1013.1
20260506020904 75 40 0.0 2.0 0.00 0.58 0.00 89 1013.1
20260506020404 74 1 2.0 6.0 0.00 0.60 0.00 90 1013.1
20260506015404 74 353 0.0 5.0 0.00 0.61 0.00 90 1013.2
20260506014904 74 62 5.0 10.0 0.00 0.62 0.00 90 1013.2
20260506014404 74 10 3.0 8.0 0.00 0.62 0.00 90 1013.2
20260506013904 74 23 3.0 7.0 0.00 0.64 0.00 90 1013.1
20260506013403 74 57 2.0 6.0 0.00 0.65 0.00 90 1013.2
20260506012904 74 41 2.0 6.0 0.00 0.66 0.00 90 1013.2
20260506012403 74 44 3.0 3.0 0.00 0.67 0.00 90 1013.3
20260506011904 74 339 1.0 3.0 0.00 0.68 0.00 91 1013.3
20260506010903 73 29 1.0 5.0 0.00 0.78 0.00 91 1013.4
20260506010405 73 51 3.0 8.0 0.00 0.83 0.00 91 1013.5
20260506005904 73 65 2.0 9.0 0.00 0.87 0.00 91 1013.4
20260506005404 73 63 2.0 7.0 0.00 0.92 0.00 91 1013.5
20260506004904 73 57 1.0 6.0 0.00 0.94 0.00 91 1013.3
20260506004404 73 350 1.0 3.0 0.00 0.97 0.00 91 1013.3